This demonstration page uses our WeatherBlox Daily Observations layout. Learn more.

Left ArrowRight Arrow

39.95238, -75.16362

Hourly Observations for May 25, 2018

Temp ( °F °C ) Dew Point ( °F °C ) Humidity (%) Winds ( mph kmh ) Pressure ( in mb ) Visibility ( mi km ) Precip ( " mm )
12:54 am 00:54 Clear 65 18.3 55 12.8 70 70 WSW 7 11 30.12 1020 10 16 0.00 0.00
1:54 am 01:54 Clear 64 17.8 55 12.8 73 73 WSW 5 7 30.11 1020 10 16 0.00 0.00
2:54 am 02:54 Mostly Clear 63 17.2 56 13.3 78 78 SSW 3 6 30.09 1019 10 16 0.00 0.00
3:54 am 03:54 Mostly Clear 62 16.7 56 13.3 80 80 SSW 3 6 30.09 1019 10 16 0.00 0.00
4:54 am 04:54 Partly Cloudy 62 16.7 57 13.9 84 84 SW 3 6 30.08 1019 10 16 0.00 0.00
5:54 am 05:54 Partly Cloudy 62 16.7 58 14.4 86 86 SW 3 6 30.09 1019 10 16 0.00 0.00
6:54 am 06:54 Mostly Sunny 63 17.2 60 15.6 90 90 SW 8 13 30.09 1019 10 16 0.00 0.00
7:54 am 07:54 Mostly Sunny 67 19.4 62 16.7 84 84 WSW 9 15 30.08 1019 10 16 0.00 0.00
8:54 am 08:54 Mostly Sunny 70 21.1 60 15.6 71 71 SW 10 17 30.07 1018 10 16 0.00 0.00
9:54 am 09:54 Mostly Sunny 74 23.3 59 15 60 60 SW 12 19 30.06 1018 10 16 0.00 0.00
10:54 am 10:54 Mostly Sunny 77 25 60 15.6 56 56 WSW 12 19 30.04 1017 10 16 0.00 0.00
11:54 am 11:54 Mostly Sunny 82 27.8 58 14.4 44 44 SW 15 24 30.02 1017 10 16 0.00 0.00
12:54 pm 12:54 Partly Cloudy 83 28.3 59 15 44 44 SSW 13 20 29.98 1015 10 16 0.00 0.00
1:54 pm 13:54 Mostly Cloudy 84 28.9 57 13.9 40 40 SW 16 26 29.96 1015 10 16 0.00 0.00
2:54 pm 14:54 Mostly Cloudy 85 29.4 56 13.3 37 37 SW 20 31 29.94 1014 10 16 0.00 0.00
3:54 pm 15:54 Mostly Cloudy 85 29.4 57 13.9 39 39 WSW 18 30 29.91 1013 10 16 0.00 0.00
4:54 pm 16:54 Mostly Cloudy 85 29.4 59 15 42 42 SW 16 26 29.90 1013 10 16 0.00 0.00
5:54 pm 17:54 Partly Cloudy 84 28.9 59 15 43 43 SW 12 19 29.88 1012 10 16 0.00 0.00
6:54 pm 18:54 Partly Cloudy 83 28.3 58 14.4 43 43 SW 16 26 29.88 1012 10 16 0.00 0.00
7:54 pm 19:54 Partly Cloudy 81 27.2 60 15.6 49 49 SSW 10 17 29.88 1012 10 16 0.00 0.00
8:54 pm 20:54 Mostly Clear 78 25.6 63 17.2 60 60 SSW 10 17 29.88 1012 10 16 0.00 0.00
9:54 pm 21:54 Mostly Clear 76 24.4 64 17.8 67 67 SSW 10 17 29.89 1012 10 16 0.00 0.00
10:54 pm 22:54 Clear 76 24.4 63 17.2 64 64 SW 16 26 29.89 1012 10 16 0.00 0.00
11:54 pm 23:54 Clear 74 23.3 63 17.2 69 69 SW 10 17 29.88 1012 10 16 0.00 0.00

Powered by AerisWeather